Year,Month,Day,Hour,Minute,Value (Times are PST for temperature in C)
2008,03,04,00,00,5.80
2008,03,04,00,01,5.80
2008,03,04,00,02,5.80
2008,03,04,00,03,5.80
2008,03,04,00,04,5.80
2008,03,04,00,05,5.80
2008,03,04,00,06,5.80
2008,03,04,00,07,5.80
2008,03,04,00,08,5.80
2008,03,04,00,09,5.80
2008,03,04,00,10,5.80
2008,03,04,00,11,5.80
2008,03,04,00,12,5.80
2008,03,04,00,13,5.80
2008,03,04,00,14,5.80
2008,03,04,00,15,5.80
2008,03,04,00,16,5.90
2008,03,04,00,17,5.90
2008,03,04,00,18,5.90
2008,03,04,00,19,5.90
2008,03,04,00,20,5.90
2008,03,04,00,21,5.90
2008,03,04,00,22,5.90
2008,03,04,00,23,5.90
2008,03,04,00,24,5.90
2008,03,04,00,25,5.90
2008,03,04,00,26,5.90
2008,03,04,00,27,5.90
2008,03,04,00,28,6.00
2008,03,04,00,29,6.00
2008,03,04,00,30,6.00
2008,03,04,00,31,6.00
2008,03,04,00,32,6.00
2008,03,04,00,33,6.00
2008,03,04,00,34,6.00
2008,03,04,00,35,6.00
2008,03,04,00,36,6.00
2008,03,04,00,37,6.00
2008,03,04,00,38,5.90
2008,03,04,00,39,5.90
2008,03,04,00,40,5.90
2008,03,04,00,41,5.90
2008,03,04,00,42,5.90
2008,03,04,00,43,5.90
2008,03,04,00,44,5.90
2008,03,04,00,45,5.90
2008,03,04,00,46,5.90
2008,03,04,00,47,5.90
2008,03,04,00,48,5.90
2008,03,04,00,49,5.90
2008,03,04,00,50,5.90
2008,03,04,00,51,5.90
2008,03,04,00,52,5.80
2008,03,04,00,53,5.80
2008,03,04,00,54,5.80
2008,03,04,00,55,5.80
2008,03,04,00,56,5.70
2008,03,04,00,57,5.70
2008,03,04,00,58,5.70
2008,03,04,00,59,5.70
2008,03,04,01,00,5.70
2008,03,04,01,01,5.70
2008,03,04,01,02,5.70
2008,03,04,01,03,5.70
2008,03,04,01,04,5.70
2008,03,04,01,05,5.70
2008,03,04,01,06,5.70
2008,03,04,01,07,5.70
2008,03,04,01,08,5.70
2008,03,04,01,09,5.70
2008,03,04,01,10,5.70
2008,03,04,01,11,5.70
2008,03,04,01,12,5.70
2008,03,04,01,13,5.70
2008,03,04,01,14,5.70
2008,03,04,01,15,5.70
2008,03,04,01,16,5.70
2008,03,04,01,17,5.70
2008,03,04,01,18,5.70
2008,03,04,01,19,5.70
2008,03,04,01,20,5.70
2008,03,04,01,21,5.70
2008,03,04,01,22,5.70
2008,03,04,01,23,5.70
2008,03,04,01,24,5.70
2008,03,04,01,25,5.70
2008,03,04,01,26,5.70
2008,03,04,01,27,5.70
2008,03,04,01,28,5.70
2008,03,04,01,29,5.70
2008,03,04,01,30,5.70
2008,03,04,01,31,5.70
2008,03,04,01,32,5.70
2008,03,04,01,33,5.70
2008,03,04,01,34,5.70
2008,03,04,01,35,5.70
2008,03,04,01,36,5.70
2008,03,04,01,37,5.70
2008,03,04,01,38,5.70
2008,03,04,01,39,5.70
2008,03,04,01,40,5.70
2008,03,04,01,41,5.70
2008,03,04,01,42,5.70
2008,03,04,01,43,5.70
2008,03,04,01,44,5.60
2008,03,04,01,45,5.60
2008,03,04,01,46,5.60
2008,03,04,01,47,5.60
2008,03,04,01,48,5.60
2008,03,04,01,49,5.60
2008,03,04,01,50,5.60
2008,03,04,01,51,5.60
2008,03,04,01,52,5.60
2008,03,04,01,53,5.60
2008,03,04,01,54,5.60
2008,03,04,01,55,5.60
2008,03,04,01,56,5.60
2008,03,04,01,57,5.50
2008,03,04,01,58,5.50
2008,03,04,01,59,5.50
2008,03,04,02,00,5.50
2008,03,04,02,01,5.50
2008,03,04,02,02,5.50
2008,03,04,02,03,5.50
2008,03,04,02,04,5.50
2008,03,04,02,05,5.50
2008,03,04,02,06,5.50
2008,03,04,02,07,5.50
2008,03,04,02,08,5.50
2008,03,04,02,09,5.40
2008,03,04,02,10,5.40
2008,03,04,02,11,5.40
2008,03,04,02,12,5.40
2008,03,04,02,13,5.40
2008,03,04,02,14,5.40
2008,03,04,02,15,5.40
2008,03,04,02,16,5.40
2008,03,04,02,17,5.40
2008,03,04,02,18,5.40
2008,03,04,02,19,5.40
2008,03,04,02,20,5.40
2008,03,04,02,21,5.40
2008,03,04,02,22,5.40
2008,03,04,02,23,5.40
2008,03,04,02,24,5.40
2008,03,04,02,25,5.30
2008,03,04,02,26,5.30
2008,03,04,02,27,5.30
2008,03,04,02,28,5.30
2008,03,04,02,29,5.30
2008,03,04,02,30,5.30
2008,03,04,02,31,5.30
2008,03,04,02,32,5.30
2008,03,04,02,33,5.30
2008,03,04,02,34,5.30
2008,03,04,02,35,5.30
2008,03,04,02,36,5.30
2008,03,04,02,37,5.30
2008,03,04,02,38,5.30
2008,03,04,02,39,5.30
2008,03,04,02,40,5.30
2008,03,04,02,41,5.30
2008,03,04,02,42,5.30
2008,03,04,02,43,5.30
2008,03,04,02,44,5.30
2008,03,04,02,45,5.30
2008,03,04,02,46,5.30
2008,03,04,02,47,5.30
2008,03,04,02,48,5.30
2008,03,04,02,49,5.30
2008,03,04,02,50,5.30
2008,03,04,02,51,5.30
2008,03,04,02,52,5.30
2008,03,04,02,53,5.30
2008,03,04,02,54,5.30
2008,03,04,02,55,5.30
2008,03,04,02,56,5.30
2008,03,04,02,57,5.30
2008,03,04,02,58,5.30
2008,03,04,02,59,5.30
2008,03,04,03,00,5.30
2008,03,04,03,01,5.30
2008,03,04,03,02,5.30
2008,03,04,03,03,5.30
2008,03,04,03,04,5.30
2008,03,04,03,05,5.30
2008,03,04,03,06,5.30
2008,03,04,03,07,5.30
2008,03,04,03,08,5.40
2008,03,04,03,09,5.40
2008,03,04,03,10,5.40
2008,03,04,03,11,5.40
2008,03,04,03,12,5.40
2008,03,04,03,13,5.40
2008,03,04,03,14,5.40
2008,03,04,03,15,5.40
2008,03,04,03,16,5.40
2008,03,04,03,17,5.50
2008,03,04,03,18,5.50
2008,03,04,03,19,5.50
2008,03,04,03,20,5.50
2008,03,04,03,21,5.50
2008,03,04,03,22,5.50
2008,03,04,03,23,5.50
2008,03,04,03,24,5.50
2008,03,04,03,25,5.50
2008,03,04,03,26,5.50
2008,03,04,03,27,5.50
2008,03,04,03,28,5.50
2008,03,04,03,29,5.50
2008,03,04,03,30,5.50
2008,03,04,03,31,5.50
2008,03,04,03,32,5.50
2008,03,04,03,33,5.50
2008,03,04,03,34,5.50
2008,03,04,03,35,5.50
2008,03,04,03,36,5.50
2008,03,04,03,37,5.50
2008,03,04,03,38,5.50
2008,03,04,03,39,5.50
2008,03,04,03,40,5.40
2008,03,04,03,41,5.40
2008,03,04,03,42,5.50
2008,03,04,03,43,5.50
2008,03,04,03,44,5.50
2008,03,04,03,45,5.50
2008,03,04,03,46,5.50
2008,03,04,03,47,5.50
2008,03,04,03,48,5.40
2008,03,04,03,49,5.40
2008,03,04,03,50,5.40
2008,03,04,03,51,5.40
2008,03,04,03,52,5.40
2008,03,04,03,53,5.40
2008,03,04,03,54,5.40
2008,03,04,03,55,5.40
2008,03,04,03,56,5.40
2008,03,04,03,57,5.40
2008,03,04,03,58,5.40
2008,03,04,03,59,5.40
2008,03,04,04,00,5.40
2008,03,04,04,01,5.40
2008,03,04,04,02,5.30
2008,03,04,04,03,5.30
2008,03,04,04,04,5.30
2008,03,04,04,05,5.30
2008,03,04,04,06,5.30
2008,03,04,04,07,5.30
2008,03,04,04,08,5.30
2008,03,04,04,09,5.30
2008,03,04,04,10,5.30
2008,03,04,04,11,5.30
2008,03,04,04,12,5.30
2008,03,04,04,13,5.30
2008,03,04,04,14,5.30
2008,03,04,04,15,5.30
2008,03,04,04,16,5.30
2008,03,04,04,17,5.30
2008,03,04,04,18,5.30
2008,03,04,04,19,5.30
2008,03,04,04,20,5.30
2008,03,04,04,21,5.30
2008,03,04,04,22,5.30
2008,03,04,04,23,5.30
2008,03,04,04,24,5.30
2008,03,04,04,25,5.30
2008,03,04,04,26,5.30
2008,03,04,04,27,5.30
2008,03,04,04,28,5.30
2008,03,04,04,29,5.30
2008,03,04,04,30,5.30
2008,03,04,04,31,5.30
2008,03,04,04,32,5.30
2008,03,04,04,33,5.30
2008,03,04,04,34,5.30
2008,03,04,04,35,5.30
2008,03,04,04,36,5.30
2008,03,04,04,37,5.20
2008,03,04,04,38,5.20
2008,03,04,04,39,5.20
2008,03,04,04,40,5.20
2008,03,04,04,41,5.20
2008,03,04,04,42,5.20
2008,03,04,04,43,5.10
2008,03,04,04,44,5.10
2008,03,04,04,45,5.10
2008,03,04,04,46,5.10
2008,03,04,04,47,5.10
2008,03,04,04,48,5.10
2008,03,04,04,49,5.10
2008,03,04,04,50,5.00
2008,03,04,04,51,4.90
2008,03,04,04,52,4.90
2008,03,04,04,53,4.90
2008,03,04,04,54,4.90
2008,03,04,04,55,4.90
2008,03,04,04,56,4.90
2008,03,04,04,57,4.90
2008,03,04,04,58,4.90
2008,03,04,04,59,4.90
2008,03,04,05,00,4.90
2008,03,04,05,01,4.80
2008,03,04,05,02,4.80
2008,03,04,05,03,4.80
2008,03,04,05,04,4.80
2008,03,04,05,05,4.80
2008,03,04,05,06,4.80
2008,03,04,05,07,4.80
2008,03,04,05,08,4.80
2008,03,04,05,09,4.80
2008,03,04,05,10,4.80
2008,03,04,05,11,4.80
2008,03,04,05,12,4.80
2008,03,04,05,13,4.80
2008,03,04,05,14,4.70
2008,03,04,05,15,4.70
2008,03,04,05,16,4.70
2008,03,04,05,17,4.70
2008,03,04,05,18,4.70
2008,03,04,05,19,4.70
2008,03,04,05,20,4.70
2008,03,04,05,21,4.70
2008,03,04,05,22,4.70
2008,03,04,05,23,4.70
2008,03,04,05,24,4.70
2008,03,04,05,25,4.70
2008,03,04,05,26,4.70
2008,03,04,05,27,4.70
2008,03,04,05,28,4.70
2008,03,04,05,29,4.70
2008,03,04,05,30,4.70
2008,03,04,05,31,4.60
2008,03,04,05,32,4.60
2008,03,04,05,33,4.60
2008,03,04,05,34,4.60
2008,03,04,05,35,4.60
2008,03,04,05,36,4.60
2008,03,04,05,37,4.60
2008,03,04,05,38,4.60
2008,03,04,05,39,4.60
2008,03,04,05,40,4.60
2008,03,04,05,41,4.60
2008,03,04,05,42,4.50
2008,03,04,05,43,4.50
2008,03,04,05,44,4.40
2008,03,04,05,45,4.30
2008,03,04,05,46,4.20
2008,03,04,05,47,4.10
2008,03,04,05,48,4.00
2008,03,04,05,49,4.00
2008,03,04,05,50,3.90
2008,03,04,05,51,3.80
2008,03,04,05,52,3.80
2008,03,04,05,53,3.70
2008,03,04,05,54,3.70
2008,03,04,05,55,3.70
2008,03,04,05,56,3.60
2008,03,04,05,57,3.60
2008,03,04,05,58,3.50
2008,03,04,05,59,3.50
2008,03,04,06,00,3.40
2008,03,04,06,01,3.40
2008,03,04,06,02,3.40
2008,03,04,06,03,3.30
2008,03,04,06,04,3.30
2008,03,04,06,05,3.30
2008,03,04,06,06,3.30
2008,03,04,06,07,3.30
2008,03,04,06,08,3.20
2008,03,04,06,09,3.20
2008,03,04,06,10,3.20
2008,03,04,06,11,3.10
2008,03,04,06,12,3.10
2008,03,04,06,13,3.10
2008,03,04,06,14,3.10
2008,03,04,06,15,3.10
2008,03,04,06,16,3.10
2008,03,04,06,17,3.00
2008,03,04,06,18,2.90
2008,03,04,06,19,2.90
2008,03,04,06,20,2.90
2008,03,04,06,21,2.90
2008,03,04,06,22,2.90
2008,03,04,06,23,2.80
2008,03,04,06,24,2.80
2008,03,04,06,25,2.70
2008,03,04,06,26,2.70
2008,03,04,06,27,2.70
2008,03,04,06,28,2.70
2008,03,04,06,29,2.70
2008,03,04,06,30,2.60
2008,03,04,06,31,2.60
2008,03,04,06,32,2.60
2008,03,04,06,33,2.50
2008,03,04,06,34,2.50
2008,03,04,06,35,2.50
2008,03,04,06,36,2.50
2008,03,04,06,37,2.40
2008,03,04,06,38,2.40
2008,03,04,06,39,2.40
2008,03,04,06,40,2.30
2008,03,04,06,41,2.30
2008,03,04,06,42,2.30
2008,03,04,06,43,2.20
2008,03,04,06,44,2.20
2008,03,04,06,45,2.20
2008,03,04,06,46,2.20
2008,03,04,06,47,2.20
2008,03,04,06,48,2.10
2008,03,04,06,49,2.10
2008,03,04,06,50,2.10
2008,03,04,06,51,2.00
2008,03,04,06,52,2.00
2008,03,04,06,53,2.00
2008,03,04,06,54,2.00
2008,03,04,06,55,1.90
2008,03,04,06,56,1.90
2008,03,04,06,57,1.90
2008,03,04,06,58,1.90
2008,03,04,06,59,1.80
2008,03,04,07,00,1.80
2008,03,04,07,01,1.80
2008,03,04,07,02,1.80
2008,03,04,07,03,1.80
2008,03,04,07,04,1.80
2008,03,04,07,05,1.80
2008,03,04,07,06,1.80
2008,03,04,07,07,1.80
2008,03,04,07,08,1.80
2008,03,04,07,09,1.70
2008,03,04,07,10,1.70
2008,03,04,07,11,1.70
2008,03,04,07,12,1.70
2008,03,04,07,13,1.70
2008,03,04,07,14,1.70
2008,03,04,07,15,1.60
2008,03,04,07,16,1.60
2008,03,04,07,17,1.60
2008,03,04,07,18,1.60
2008,03,04,07,19,1.60
2008,03,04,07,20,1.60
2008,03,04,07,21,1.60
2008,03,04,07,22,1.60
2008,03,04,07,23,1.60
2008,03,04,07,24,1.60
2008,03,04,07,25,1.60
2008,03,04,07,26,1.60
2008,03,04,07,27,1.60
2008,03,04,07,28,1.60
2008,03,04,07,29,1.60
2008,03,04,07,30,1.60
2008,03,04,07,31,1.60
2008,03,04,07,32,1.60
2008,03,04,07,33,1.70
2008,03,04,07,34,1.70
2008,03,04,07,35,1.70
2008,03,04,07,36,1.70
2008,03,04,07,37,1.70
2008,03,04,07,38,1.70
2008,03,04,07,39,1.70
2008,03,04,07,40,1.70
2008,03,04,07,41,1.80
2008,03,04,07,42,1.80
2008,03,04,07,43,1.80
2008,03,04,07,44,1.80
2008,03,04,07,45,1.90
2008,03,04,07,46,1.90
2008,03,04,07,47,1.90
2008,03,04,07,48,1.90
2008,03,04,07,49,1.90
2008,03,04,07,50,2.00
2008,03,04,07,51,2.00
2008,03,04,07,52,2.10
2008,03,04,07,53,2.10
2008,03,04,07,54,2.10
2008,03,04,07,55,2.20
2008,03,04,07,56,2.20
2008,03,04,07,57,2.20
2008,03,04,07,58,2.20
2008,03,04,07,59,2.20
2008,03,04,08,00,2.20
2008,03,04,08,01,2.30
2008,03,04,08,02,2.30
2008,03,04,08,03,2.30
2008,03,04,08,04,2.40
2008,03,04,08,05,2.40
2008,03,04,08,06,2.50
2008,03,04,08,07,2.50
2008,03,04,08,08,2.50
2008,03,04,08,09,2.60
2008,03,04,08,10,2.60
2008,03,04,08,11,2.60
2008,03,04,08,12,2.70
2008,03,04,08,13,2.70
2008,03,04,08,14,2.70
2008,03,04,08,15,2.70
2008,03,04,08,16,2.70
2008,03,04,08,17,2.70
2008,03,04,08,18,2.80
2008,03,04,08,19,2.80
2008,03,04,08,20,2.90
2008,03,04,08,21,2.90
2008,03,04,08,22,2.90
2008,03,04,08,23,3.00
2008,03,04,08,24,3.10
2008,03,04,08,25,3.10
2008,03,04,08,26,3.20
2008,03,04,08,27,3.20
2008,03,04,08,28,3.30
2008,03,04,08,29,3.30
2008,03,04,08,30,3.30
2008,03,04,08,31,3.30
2008,03,04,08,32,3.40
2008,03,04,08,33,3.50
2008,03,04,08,34,3.50
2008,03,04,08,35,3.50
2008,03,04,08,36,3.60
2008,03,04,08,37,3.60
2008,03,04,08,38,3.70
2008,03,04,08,39,3.80
2008,03,04,08,40,3.80
2008,03,04,08,41,3.90
2008,03,04,08,42,4.00
2008,03,04,08,43,4.00
2008,03,04,08,44,4.20
2008,03,04,08,45,4.20
2008,03,04,08,46,4.30
2008,03,04,08,47,4.40
2008,03,04,08,48,4.50
2008,03,04,08,49,4.70
2008,03,04,08,50,4.80
2008,03,04,08,51,4.90
2008,03,04,08,52,5.10
2008,03,04,08,53,5.20
2008,03,04,08,54,5.40
2008,03,04,08,55,5.50
2008,03,04,08,56,5.70
2008,03,04,08,57,5.80
2008,03,04,08,58,6.00
2008,03,04,08,59,6.20
2008,03,04,09,00,6.30
2008,03,04,09,01,6.40
2008,03,04,09,02,6.60
2008,03,04,09,03,6.70
2008,03,04,09,04,6.80
2008,03,04,09,05,6.80
2008,03,04,09,06,6.80
2008,03,04,09,07,6.90
2008,03,04,09,08,6.90
2008,03,04,09,09,6.90
2008,03,04,09,10,6.90
2008,03,04,09,11,6.90
2008,03,04,09,12,6.90
2008,03,04,09,13,6.90
2008,03,04,09,14,6.90
2008,03,04,09,15,7.00
2008,03,04,09,16,7.00
2008,03,04,09,17,7.10
2008,03,04,09,18,7.20
2008,03,04,09,19,7.30
2008,03,04,09,20,7.30
2008,03,04,09,21,7.30
2008,03,04,09,22,7.20
2008,03,04,09,23,7.20
2008,03,04,09,24,7.10
2008,03,04,09,25,7.10
2008,03,04,09,26,7.10
2008,03,04,09,27,7.10
2008,03,04,09,28,7.10
2008,03,04,09,29,7.10
2008,03,04,09,30,7.00
2008,03,04,09,31,7.00
2008,03,04,09,32,7.00
2008,03,04,09,33,7.00
2008,03,04,09,34,7.10
2008,03,04,09,35,7.10
2008,03,04,09,36,7.10
2008,03,04,09,37,7.10
2008,03,04,09,38,7.20
2008,03,04,09,39,7.20
2008,03,04,09,40,7.30
2008,03,04,09,41,7.30
2008,03,04,09,42,7.30
2008,03,04,09,43,7.40
2008,03,04,09,44,7.50
2008,03,04,09,45,7.60
2008,03,04,09,46,7.60
2008,03,04,09,47,7.60
2008,03,04,09,48,7.60
2008,03,04,09,49,7.60
2008,03,04,09,50,7.60
2008,03,04,09,51,7.70
2008,03,04,09,52,7.80
2008,03,04,09,53,7.80
2008,03,04,09,54,7.80
2008,03,04,09,55,7.80
2008,03,04,09,56,7.80
2008,03,04,09,57,7.80
2008,03,04,09,58,7.80
2008,03,04,09,59,7.90
2008,03,04,10,00,7.90
2008,03,04,10,01,7.90
2008,03,04,10,02,7.90
2008,03,04,10,03,7.90
2008,03,04,10,04,7.90
2008,03,04,10,05,7.90
2008,03,04,10,06,7.80
2008,03,04,10,07,7.80
2008,03,04,10,08,7.80
2008,03,04,10,09,7.80
2008,03,04,10,10,7.90
2008,03,04,10,11,8.00
2008,03,04,10,12,8.10
2008,03,04,10,13,8.10
2008,03,04,10,14,8.20
2008,03,04,10,15,8.20
2008,03,04,10,16,8.20
2008,03,04,10,17,8.20
2008,03,04,10,18,8.20
2008,03,04,10,19,8.20
2008,03,04,10,20,8.20
2008,03,04,10,21,8.20
2008,03,04,10,22,8.20
2008,03,04,10,23,8.30
2008,03,04,10,24,8.40
2008,03,04,10,25,8.40
2008,03,04,10,26,8.40
2008,03,04,10,27,8.40
2008,03,04,10,28,8.40
2008,03,04,10,29,8.40
2008,03,04,10,30,8.30
2008,03,04,10,31,8.20
2008,03,04,10,32,8.20
2008,03,04,10,33,8.20
2008,03,04,10,34,8.30
2008,03,04,10,35,8.30
2008,03,04,10,36,8.30
2008,03,04,10,37,8.40
2008,03,04,10,38,8.40
2008,03,04,10,39,8.40
2008,03,04,10,40,8.50
2008,03,04,10,41,8.60
2008,03,04,10,42,8.70
2008,03,04,10,43,8.80
2008,03,04,10,44,9.00
2008,03,04,10,45,9.10
2008,03,04,10,46,9.20
2008,03,04,10,47,9.30
2008,03,04,10,48,9.40
2008,03,04,10,49,9.40
2008,03,04,10,50,9.30
2008,03,04,10,51,9.20
2008,03,04,10,52,9.20
2008,03,04,10,53,9.20
2008,03,04,10,54,9.20
2008,03,04,10,55,9.20
2008,03,04,10,56,9.20
2008,03,04,10,57,9.20
2008,03,04,10,58,9.10
2008,03,04,10,59,9.10
2008,03,04,11,00,9.10
2008,03,04,11,01,9.10
2008,03,04,11,02,9.10
2008,03,04,11,03,9.20
2008,03,04,11,04,9.20
2008,03,04,11,05,9.30
2008,03,04,11,06,9.40
2008,03,04,11,07,9.30
2008,03,04,11,08,9.30
2008,03,04,11,09,9.30
2008,03,04,11,10,9.20
2008,03,04,11,11,9.20
2008,03,04,11,12,9.20
2008,03,04,11,13,9.20
2008,03,04,11,14,9.30
2008,03,04,11,15,9.40
2008,03,04,11,16,9.50
2008,03,04,11,17,9.60
2008,03,04,11,18,9.60
2008,03,04,11,19,9.60
2008,03,04,11,20,9.60
2008,03,04,11,21,9.50
2008,03,04,11,22,9.50
2008,03,04,11,23,9.50
2008,03,04,11,24,9.40
2008,03,04,11,25,9.50
2008,03,04,11,26,9.50
2008,03,04,11,27,9.40
2008,03,04,11,28,9.30
2008,03,04,11,29,9.30
2008,03,04,11,30,9.20
2008,03,04,11,31,9.20
2008,03,04,11,32,9.20
2008,03,04,11,33,9.20
2008,03,04,11,34,9.20
2008,03,04,11,35,9.20
2008,03,04,11,36,9.30
2008,03,04,11,37,9.30
2008,03,04,11,38,9.20
2008,03,04,11,39,9.20
2008,03,04,11,40,9.30
2008,03,04,11,41,9.30
2008,03,04,11,42,9.20
2008,03,04,11,43,9.20
2008,03,04,11,44,9.30
2008,03,04,11,45,9.40
2008,03,04,11,46,9.40
2008,03,04,11,47,9.40
2008,03,04,11,48,9.30
2008,03,04,11,49,9.20
2008,03,04,11,50,9.30
2008,03,04,11,51,9.30
2008,03,04,11,52,9.40
2008,03,04,11,53,9.40
2008,03,04,11,54,9.30
2008,03,04,11,55,9.40
2008,03,04,11,56,9.40
2008,03,04,11,57,9.30
2008,03,04,11,58,9.30
2008,03,04,11,59,9.30
2008,03,04,12,00,9.20
2008,03,04,12,01,9.30
2008,03,04,12,02,9.40
2008,03,04,12,03,9.40
2008,03,04,12,04,9.40
2008,03,04,12,05,9.50
2008,03,04,12,06,9.40
2008,03,04,12,07,9.50
2008,03,04,12,08,9.50
2008,03,04,12,09,9.50
2008,03,04,12,10,9.60
2008,03,04,12,11,9.70
2008,03,04,12,12,9.70
2008,03,04,12,13,9.70
2008,03,04,12,14,9.50
2008,03,04,12,15,9.40
2008,03,04,12,16,9.30
2008,03,04,12,17,9.30
2008,03,04,12,18,9.20
2008,03,04,12,19,9.10
2008,03,04,12,20,8.90
2008,03,04,12,21,8.80
2008,03,04,12,22,8.70
2008,03,04,12,23,8.70
2008,03,04,12,24,8.70
2008,03,04,12,25,8.70
2008,03,04,12,26,8.60
2008,03,04,12,27,8.50
2008,03,04,12,28,8.50
2008,03,04,12,29,8.40
2008,03,04,12,30,8.30
2008,03,04,12,31,8.30
2008,03,04,12,32,8.20
2008,03,04,12,33,8.20
2008,03,04,12,34,8.30
2008,03,04,12,35,8.30
2008,03,04,12,36,8.30
2008,03,04,12,37,8.30
2008,03,04,12,38,8.30
2008,03,04,12,39,8.20
2008,03,04,12,40,8.20
2008,03,04,12,41,8.30
2008,03,04,12,42,8.30
2008,03,04,12,43,8.30
2008,03,04,12,44,8.30
2008,03,04,12,45,8.50
2008,03,04,12,46,8.60
2008,03,04,12,47,8.70
2008,03,04,12,48,8.70
2008,03,04,12,49,8.70
2008,03,04,12,50,8.60
2008,03,04,12,51,8.70
2008,03,04,12,52,8.80
2008,03,04,12,53,8.90
2008,03,04,12,54,9.00
2008,03,04,12,55,9.00
2008,03,04,12,56,9.10
2008,03,04,12,57,9.30
2008,03,04,12,58,9.30
2008,03,04,12,59,9.40
2008,03,04,13,00,9.40
2008,03,04,13,01,9.30
2008,03,04,13,02,9.20
2008,03,04,13,03,9.10
2008,03,04,13,04,9.00
2008,03,04,13,05,9.00
2008,03,04,13,06,9.00
2008,03,04,13,07,8.90
2008,03,04,13,08,8.90
2008,03,04,13,09,8.80
2008,03,04,13,10,8.80
2008,03,04,13,11,8.70
2008,03,04,13,12,8.70
2008,03,04,13,13,8.70
2008,03,04,13,14,8.70
2008,03,04,13,15,8.60
2008,03,04,13,16,8.50
2008,03,04,13,17,8.50
2008,03,04,13,18,8.50
2008,03,04,13,19,8.50
2008,03,04,13,20,8.50
2008,03,04,13,21,8.50
2008,03,04,13,22,8.50
2008,03,04,13,23,8.50
2008,03,04,13,24,8.50
2008,03,04,13,25,8.50
2008,03,04,13,26,8.50
2008,03,04,13,27,8.40
2008,03,04,13,28,8.40
2008,03,04,13,29,8.40
2008,03,04,13,30,8.50
2008,03,04,13,31,8.50
2008,03,04,13,32,8.50
2008,03,04,13,33,8.50
2008,03,04,13,34,8.60
2008,03,04,13,35,8.70
2008,03,04,13,36,8.80
2008,03,04,13,37,8.80
2008,03,04,13,38,8.80
2008,03,04,13,39,8.80
2008,03,04,13,40,8.80
2008,03,04,13,41,8.80
2008,03,04,13,42,8.80
2008,03,04,13,43,8.90
2008,03,04,13,44,9.00
2008,03,04,13,45,9.20
2008,03,04,13,46,9.10
2008,03,04,13,47,9.00
2008,03,04,13,48,9.00
2008,03,04,13,49,9.10
2008,03,04,13,50,9.10
2008,03,04,13,51,9.20
2008,03,04,13,52,9.20
2008,03,04,13,53,9.10
2008,03,04,13,54,9.10
2008,03,04,13,55,9.00
2008,03,04,13,56,8.90
2008,03,04,13,57,8.80
2008,03,04,13,58,8.80
2008,03,04,13,59,8.70
2008,03,04,14,00,8.70
2008,03,04,14,01,8.70
2008,03,04,14,02,8.70
2008,03,04,14,03,8.70
2008,03,04,14,04,8.70
2008,03,04,14,05,8.70
2008,03,04,14,06,8.70
2008,03,04,14,07,8.70
2008,03,04,14,08,8.80
2008,03,04,14,09,8.80
2008,03,04,14,10,8.90
2008,03,04,14,11,8.90
2008,03,04,14,12,9.00
2008,03,04,14,13,9.10
2008,03,04,14,14,9.00
2008,03,04,14,15,9.00
2008,03,04,14,16,8.90
2008,03,04,14,17,8.80
2008,03,04,14,18,8.70
2008,03,04,14,19,8.70
2008,03,04,14,20,8.70
2008,03,04,14,21,8.70
2008,03,04,14,22,8.70
2008,03,04,14,23,8.70
2008,03,04,14,24,8.70
2008,03,04,14,25,8.80
2008,03,04,14,26,8.70
2008,03,04,14,27,8.70
2008,03,04,14,28,8.70
2008,03,04,14,29,8.70
2008,03,04,14,30,8.60
2008,03,04,14,31,8.60
2008,03,04,14,32,8.70
2008,03,04,14,33,8.70
2008,03,04,14,34,8.70
2008,03,04,14,35,8.70
2008,03,04,14,36,8.70
2008,03,04,14,37,8.70
2008,03,04,14,38,8.60
2008,03,04,14,39,8.60
2008,03,04,14,40,8.60
2008,03,04,14,41,8.70
2008,03,04,14,42,8.70
2008,03,04,14,43,8.70
2008,03,04,14,44,8.70
2008,03,04,14,45,8.70
2008,03,04,14,46,8.70
2008,03,04,14,47,8.70
2008,03,04,14,48,8.70
2008,03,04,14,49,8.80
2008,03,04,14,50,8.70
2008,03,04,14,51,8.70
2008,03,04,14,52,8.70
2008,03,04,14,53,8.80
2008,03,04,14,54,8.90
2008,03,04,14,55,9.00
2008,03,04,14,56,9.10
2008,03,04,14,57,9.20
2008,03,04,14,58,9.20
2008,03,04,14,59,9.20
2008,03,04,15,00,9.20
2008,03,04,15,01,9.20
2008,03,04,15,02,9.20
2008,03,04,15,03,9.30
2008,03,04,15,04,9.50
2008,03,04,15,05,9.50
2008,03,04,15,06,9.40
2008,03,04,15,07,9.40
2008,03,04,15,08,9.30
2008,03,04,15,09,9.10
2008,03,04,15,10,8.90
2008,03,04,15,11,8.90
2008,03,04,15,12,8.80
2008,03,04,15,13,8.80
2008,03,04,15,14,8.90
2008,03,04,15,15,8.90
2008,03,04,15,16,8.90
2008,03,04,15,17,9.00
2008,03,04,15,18,9.00
2008,03,04,15,19,9.00
2008,03,04,15,20,9.00
2008,03,04,15,21,9.00
2008,03,04,15,22,9.10
2008,03,04,15,23,9.10
2008,03,04,15,24,9.10
2008,03,04,15,25,9.00
2008,03,04,15,26,8.90
2008,03,04,15,27,8.90
2008,03,04,15,28,8.90
2008,03,04,15,29,8.80
2008,03,04,15,30,8.80
2008,03,04,15,31,8.70
2008,03,04,15,32,8.70
2008,03,04,15,33,8.80
2008,03,04,15,34,8.80
2008,03,04,15,35,8.80
2008,03,04,15,36,8.80
2008,03,04,15,37,8.70
2008,03,04,15,38,8.70
2008,03,04,15,39,8.70
2008,03,04,15,40,8.70
2008,03,04,15,41,8.70
2008,03,04,15,42,8.60
2008,03,04,15,43,8.60
2008,03,04,15,44,8.60
2008,03,04,15,45,8.60
2008,03,04,15,46,8.60
2008,03,04,15,47,8.60
2008,03,04,15,48,8.60
2008,03,04,15,49,8.50
2008,03,04,15,50,8.50
2008,03,04,15,51,8.40
2008,03,04,15,52,8.30
2008,03,04,15,53,8.30
2008,03,04,15,54,8.30
2008,03,04,15,55,8.20
2008,03,04,15,56,8.30
2008,03,04,15,57,8.30
2008,03,04,15,58,8.20
2008,03,04,15,59,8.20
2008,03,04,16,00,8.30
2008,03,04,16,01,8.30
2008,03,04,16,02,8.30
2008,03,04,16,03,8.20
2008,03,04,16,04,8.20
2008,03,04,16,05,8.20
2008,03,04,16,06,8.20
2008,03,04,16,07,8.20
2008,03,04,16,08,8.20
2008,03,04,16,09,8.20
2008,03,04,16,10,8.20
2008,03,04,16,11,8.20
2008,03,04,16,12,8.20
2008,03,04,16,13,8.20
2008,03,04,16,14,8.20
2008,03,04,16,15,8.20
2008,03,04,16,16,8.20
2008,03,04,16,17,8.20
2008,03,04,16,18,8.20
2008,03,04,16,19,8.20
2008,03,04,16,20,8.20
2008,03,04,16,21,8.20
2008,03,04,16,22,8.20
2008,03,04,16,23,8.10
2008,03,04,16,24,8.10
2008,03,04,16,25,8.00
2008,03,04,16,26,8.00
2008,03,04,16,27,7.90
2008,03,04,16,28,7.80
2008,03,04,16,29,7.80
2008,03,04,16,30,7.80
2008,03,04,16,31,7.80
2008,03,04,16,32,7.80
2008,03,04,16,33,7.80
2008,03,04,16,34,7.80
2008,03,04,16,35,7.80
2008,03,04,16,36,7.80
2008,03,04,16,37,7.80
2008,03,04,16,38,7.80
2008,03,04,16,39,7.80
2008,03,04,16,40,7.80
2008,03,04,16,41,7.80
2008,03,04,16,42,7.80
2008,03,04,16,43,7.80
2008,03,04,16,44,7.80
2008,03,04,16,45,7.80
2008,03,04,16,46,7.80
2008,03,04,16,47,7.80
2008,03,04,16,48,7.80
2008,03,04,16,49,7.80
2008,03,04,16,50,7.80
2008,03,04,16,51,7.80
2008,03,04,16,52,7.70
2008,03,04,16,53,7.70
2008,03,04,16,54,7.60
2008,03,04,16,55,7.50
2008,03,04,16,56,7.40
2008,03,04,16,57,7.30
2008,03,04,16,58,7.30
2008,03,04,16,59,7.30
2008,03,04,17,00,7.20
2008,03,04,17,01,7.10
2008,03,04,17,02,7.10
2008,03,04,17,03,7.10
2008,03,04,17,04,7.10
2008,03,04,17,05,7.10
2008,03,04,17,06,7.10
2008,03,04,17,07,7.10
2008,03,04,17,08,7.00
2008,03,04,17,09,7.00
2008,03,04,17,10,7.00
2008,03,04,17,11,7.00
2008,03,04,17,12,7.00
2008,03,04,17,13,6.90
2008,03,04,17,14,6.90
2008,03,04,17,15,6.90
2008,03,04,17,16,6.90
2008,03,04,17,17,6.90
2008,03,04,17,18,6.90
2008,03,04,17,19,6.80
2008,03,04,17,20,6.80
2008,03,04,17,21,6.80
2008,03,04,17,22,6.80
2008,03,04,17,23,6.80
2008,03,04,17,24,6.80
2008,03,04,17,25,6.80
2008,03,04,17,26,6.80
2008,03,04,17,27,6.80
2008,03,04,17,28,6.70
2008,03,04,17,29,6.70
2008,03,04,17,30,6.70
2008,03,04,17,31,6.60
2008,03,04,17,32,6.60
2008,03,04,17,33,6.60
2008,03,04,17,34,6.60
2008,03,04,17,35,6.60
2008,03,04,17,36,6.60
2008,03,04,17,37,6.60
2008,03,04,17,38,6.60
2008,03,04,17,39,6.60
2008,03,04,17,40,6.60
2008,03,04,17,41,6.60
2008,03,04,17,42,6.60
2008,03,04,17,43,6.60
2008,03,04,17,44,6.60
2008,03,04,17,45,6.60
2008,03,04,17,46,6.60
2008,03,04,17,47,6.60
2008,03,04,17,48,6.60
2008,03,04,17,49,6.60
2008,03,04,17,50,6.60
2008,03,04,17,51,6.60
2008,03,04,17,52,6.60
2008,03,04,17,53,6.60
2008,03,04,17,54,6.60
2008,03,04,17,55,6.60
2008,03,04,17,56,6.60
2008,03,04,17,57,6.60
2008,03,04,17,58,6.60
2008,03,04,17,59,6.60
2008,03,04,18,00,6.60
2008,03,04,18,01,6.60
2008,03,04,18,02,6.60
2008,03,04,18,03,6.60
2008,03,04,18,04,6.60
2008,03,04,18,05,6.60
2008,03,04,18,06,6.60